Location: Jackson Park
(37.2862°N, 79.9123°W)
Time: 20:07:10
(UTC+00:00)

Vanguard 3 - Pass Details

Date: 19 May 2026
Orbit: 507 x 3205 km, 33.4° (Epoch: 31 May)

Event Time Altitude Azimuth Distance (km) Brightness Sun altitude
Rises 21:53:58 0° 279° (W) 7,036 13.2 28.0°
Reaches altitude 10° 21:58:38 10° 277° (W) 6,105 13.4 27.0°
Maximum altitude 22:17:56 65° 202° (SSW) 3,091 10.5 23.2°
Drops below altitude 10° 22:32:07 10° 124° (SE) 4,652 10.5 20.5°
Sets 22:35:09 0° 121° (ESE) 5,350 10.8 19.9°
